Weather History for Buckeye, AZ

Change the Weather History Date:

Sunday, August 4, 2013

  Actual Average (KGYR) Record (KGYR)
Temperature  
Mean Temperature 94 °F -  
Max Temperature 105 °F 101 °F 113 °F (2010)
Min Temperature 82 °F 79 °F 75 °F (2014)
Cooling Degree Days 28    
Growing Degree Days 44 (Base 50)    
Moisture  
Dew Point 31 °F    
Average Humidity 11    
Maximum Humidity 20    
Minimum Humidity 6    
Precipitation  
Precipitation 0.00 in - - ()
Sea Level Pressure  
Sea Level Pressure 29.87 in    
Wind  
Wind Speed 4 mph (SSE)    
Max Wind Speed 8 mph    
Max Gust Speed -    
Visibility 10 miles    
Events      
Averages and records for this station are not official NWS values.
T = Trace of Precipitation, MM = Missing Value Source: NWS Daily Summary

Daily Weather History Graph

Daily Weather History Graph

Search for Another Location

Airport:

Trip Planner

Search our weather history database for the weather conditions in past years. The results will help you decide how hot, cold, wet, or windy it might be!

Date:

Astronomy

Aug. 04, 2013 Rise Set
Actual Time 5:45 AM MST 7:27 PM MST
Civil Twilight 5:18 AM MST 7:54 PM MST
Nautical Twilight 4:46 AM MST 8:26 PM MST
Astronomical Twilight 4:12 AM MST 9:00 PM MST
Moon 3:51 AM MST (8/4) 5:53 PM MST (8/4)
Length of Visible Light 14h 35m
Length of Day
13h 41m
Waning Crescent, 4% of the Moon is Illuminated
Aug 4
Waning Crescent
Aug 6
New
Aug 14
First Quarter
Aug 20
Full
Aug 28
Last Quarter

Hourly Weather History & Observations

Time (MST) Temp. Dew Point Humidity Pressure Visibility Wind Dir Wind Speed Gust Speed Precip Events Conditions
12:15 AM 91.4 °F 35.6 °F 14% 29.87 in 10.0 mi NW 3.5 mph - N/A   Clear
12:35 AM 91.4 °F 35.6 °F 14% 29.86 in 10.0 mi West 3.5 mph - N/A   Clear
12:55 AM 89.6 °F 35.6 °F 15% 29.87 in 10.0 mi NNW 4.6 mph - N/A   Clear
1:15 AM 89.6 °F 35.6 °F 15% 29.86 in 10.0 mi Calm Calm - N/A   Clear
1:35 AM 89.6 °F 37.4 °F 16% 29.87 in 10.0 mi WNW 3.5 mph - N/A   Clear
1:55 AM 87.8 °F 35.6 °F 16% 29.86 in 10.0 mi West 3.5 mph - N/A   Clear
2:15 AM 89.6 °F 32.0 °F 13% 29.86 in 10.0 mi West 5.8 mph - N/A   Clear
2:35 AM 87.8 °F 33.8 °F 15% 29.85 in 10.0 mi West 4.6 mph - N/A   Partly Cloudy
2:55 AM 87.8 °F 35.6 °F 16% 29.86 in 10.0 mi West 4.6 mph - N/A   Scattered Clouds
3:15 AM 86.0 °F 35.6 °F 17% 29.86 in 10.0 mi West 4.6 mph - N/A   Partly Cloudy
3:35 AM 86.0 °F 33.8 °F 15% 29.87 in 10.0 mi West 4.6 mph - N/A   Clear
3:55 AM 84.2 °F 32.0 °F 15% 29.87 in 10.0 mi West 4.6 mph - N/A   Scattered Clouds
4:15 AM 84.2 °F 28.4 °F 13% 29.87 in 10.0 mi West 4.6 mph - N/A   Scattered Clouds
4:35 AM 84.2 °F 26.6 °F 12% 29.88 in 10.0 mi Calm Calm - N/A   Mostly Cloudy
4:55 AM 84.2 °F 26.6 °F 12% 29.88 in 10.0 mi North 4.6 mph - N/A   Overcast
5:15 AM 82.4 °F 28.4 °F 14% 29.88 in 10.0 mi North 4.6 mph - N/A   Overcast
5:35 AM 84.2 °F 26.6 °F 12% 29.89 in 10.0 mi North 3.5 mph - N/A   Scattered Clouds
5:55 AM 84.2 °F 26.6 °F 12% 29.90 in 10.0 mi NNE 4.6 mph - N/A   Clear
6:15 AM 84.2 °F 26.6 °F 12% 29.90 in 10.0 mi NNW 4.6 mph - N/A   Clear
6:35 AM 84.2 °F 26.6 °F 12% 29.91 in 10.0 mi Calm Calm - N/A   Clear
6:55 AM 84.2 °F 28.4 °F 13% 29.92 in 10.0 mi Calm Calm - N/A   Clear
7:15 AM 87.8 °F 28.4 °F 12% 29.93 in 10.0 mi Calm Calm - N/A   Clear
7:35 AM 89.6 °F 23.0 °F 9% 29.94 in 10.0 mi Calm Calm - N/A   Clear
7:55 AM 91.4 °F 24.8 °F 9% 29.94 in 10.0 mi Calm Calm - N/A   Clear
8:15 AM 91.4 °F 24.8 °F 9% 29.94 in 10.0 mi Calm Calm - N/A   Clear
8:35 AM 91.4 °F 24.8 °F 9% 29.94 in 10.0 mi Calm Calm - N/A   Clear
8:55 AM 91.4 °F 30.2 °F 11% 29.94 in 10.0 mi Calm Calm - N/A   Clear
9:15 AM 93.2 °F 28.4 °F 10% 29.95 in 10.0 mi SSE 4.6 mph - N/A   Clear
9:35 AM 95.0 °F 26.6 °F 9% 29.94 in 10.0 mi SSE 3.5 mph - N/A   Clear
9:55 AM 95.0 °F 30.2 °F 10% 29.95 in 10.0 mi South 5.8 mph - N/A   Clear
10:15 AM 95.0 °F 30.2 °F 10% 29.95 in 10.0 mi South 3.5 mph - N/A   Clear
10:35 AM 96.8 °F 30.2 °F 10% 29.95 in 10.0 mi SE 4.6 mph - N/A   Clear
10:55 AM 98.6 °F 28.4 °F 8% 29.95 in 10.0 mi SSE 5.8 mph - N/A   Clear
11:15 AM 98.6 °F 28.4 °F 8% 29.94 in 10.0 mi South 5.8 mph - N/A   Clear
11:35 AM 100.4 °F 28.4 °F 8% 29.94 in 10.0 mi SSE 4.6 mph - N/A   Clear
11:55 AM 100.4 °F 28.4 °F 8% 29.93 in 10.0 mi South 5.8 mph - N/A   Clear
12:15 PM 100.4 °F 26.6 °F 7% 29.93 in 10.0 mi South 4.6 mph - N/A   Clear
12:35 PM 102.2 °F 24.8 °F 6% 29.92 in 10.0 mi SW 4.6 mph - N/A   Clear
12:55 PM 102.2 °F 24.8 °F 6% 29.91 in 10.0 mi South 3.5 mph - N/A   Clear
1:15 PM 102.2 °F 26.6 °F 7% 29.90 in 10.0 mi Calm Calm - N/A   Unknown
1:35 PM 104.0 °F 26.6 °F 7% 29.89 in 10.0 mi ENE 3.5 mph - N/A   Unknown
1:55 PM 104.0 °F 28.4 °F 7% 29.88 in 10.0 mi ESE 8.1 mph - N/A   Unknown
2:15 PM 104.0 °F 28.4 °F 7% 29.88 in 10.0 mi NNE 4.6 mph - N/A   Unknown
2:35 PM 104.0 °F 28.4 °F 7% 29.87 in 10.0 mi ESE 8.1 mph - N/A   Clear
2:55 PM 104.0 °F 30.2 °F 8% 29.86 in 10.0 mi Calm Calm - N/A   Clear
3:15 PM 104.0 °F 30.2 °F 8% 29.85 in 10.0 mi SE 5.8 mph - N/A   Clear
3:35 PM 104.0 °F 32.0 °F 8% 29.84 in 10.0 mi SE 6.9 mph - N/A   Clear
3:55 PM 104.0 °F 32.0 °F 8% 29.84 in 10.0 mi East 4.6 mph - N/A   Clear
4:15 PM 104.0 °F 32.0 °F 8% 29.83 in 10.0 mi SE 5.8 mph - N/A   Clear
4:35 PM 104.0 °F 32.0 °F 8% 29.82 in 10.0 mi SE 8.1 mph - N/A   Clear
4:55 PM 105.8 °F 33.8 °F 8% 29.82 in 10.0 mi SE 5.8 mph - N/A   Clear
5:15 PM 104.0 °F 32.0 °F 8% 29.82 in 10.0 mi SE 5.8 mph - N/A   Clear
5:35 PM 104.0 °F 35.6 °F 9% 29.81 in 10.0 mi SE 5.8 mph - N/A   Clear
5:55 PM 104.0 °F 32.0 °F 8% 29.81 in 10.0 mi SE 4.6 mph - N/A   Clear
6:15 PM 104.0 °F 32.0 °F 8% 29.80 in 10.0 mi ESE 4.6 mph - N/A   Clear
6:35 PM 104.0 °F 32.0 °F 8% 29.80 in 10.0 mi ESE 3.5 mph - N/A   Clear
6:55 PM 104.0 °F 33.8 °F 9% 29.80 in 10.0 mi ESE 3.5 mph - N/A   Clear
7:15 PM 102.2 °F 37.4 °F 11% 29.80 in 10.0 mi Calm Calm - N/A   Clear
7:35 PM 100.4 °F 35.6 °F 11% 29.81 in 10.0 mi Calm Calm - N/A   Clear
7:55 PM 98.6 °F 35.6 °F 11% 29.81 in 10.0 mi Calm Calm - N/A   Clear
8:15 PM 98.6 °F 35.6 °F 11% 29.82 in 10.0 mi Calm Calm - N/A   Clear
8:35 PM 95.0 °F 35.6 °F 12% 29.83 in 9.0 mi Calm Calm - N/A   Clear
8:55 PM 96.8 °F 33.8 °F 11% 29.84 in 10.0 mi Calm Calm - N/A   Clear
9:15 PM 93.2 °F 37.4 °F 14% 29.84 in 10.0 mi East 4.6 mph - N/A   Clear
9:35 PM 93.2 °F 37.4 °F 14% 29.85 in 10.0 mi East 4.6 mph - N/A   Clear
9:55 PM 91.4 °F 37.4 °F 15% 29.85 in 10.0 mi Calm Calm - N/A   Clear
10:15 PM 91.4 °F 35.6 °F 14% 29.85 in 10.0 mi NNE 3.5 mph - N/A   Clear
10:35 PM 87.8 °F 32.0 °F 14% 29.85 in 10.0 mi NNE 3.5 mph - N/A   Clear
10:55 PM 86.0 °F 35.6 °F 17% 29.86 in 10.0 mi Calm Calm - N/A   Clear
11:15 PM 86.0 °F 39.2 °F 19% 29.86 in 10.0 mi SSW 6.9 mph - N/A   Clear
11:35 PM 86.0 °F 41.0 °F 20% 29.86 in 10.0 mi SSW 6.9 mph - N/A   Clear
11:55 PM 84.2 °F 39.2 °F 20% 29.86 in 10.0 mi SW 6.9 mph - N/A   Clear